GSAT-9 (42695 NORAD) Tracking and Keplerian Element Data

This shows tracking and keplerian element data for the satellite.

Feedback or suggestion? Click here.




ElementValue
Catalog42695
NameGSAT-9
Epoch Orbit590
Epoch Day344.50950643
Epoch Year2018
RAAN278.3876
Inclination0.0904
Eccentricity0.000171
Argument of Perigee0.6617
Mean Anonmoly80.9428
Mean Motion1.0027194
Decay Rate-2.82E-06
L11 42695U 17024A 18344.50950643 -.00000282 00000-0 00000+0 0 9994
L22 42695 0.0904 278.3876 0001710 0.6617 80.9428 1.00271940 5900

Live tracking and technical data element details for GSAT-9 (NORAD 42695). GSAT-9 can be tracked NOW for your location showing map with azimuth and elevation plus other details from your city location.

Track the satellite on the map from your city or location and see movement details for azimuth, elevation, latitude, longitude, range, height, and movement on the map or in text.







IsCatalogInMostPopularTable: catalog: 42695, numindb: 127
Update: records affected: 1



GetName: 42695 GSAT-9

Hit Count: updated at: Thu, 13 Dec 2018 05:10:01 GMT